sat.trackr.live / text

‹ back to catalog

STARLINK-11359 [DTC]

NORAD 61884 · 2024-204L

PAYLOAD ACTIVE UNKNOWN

§ Identity

Operator
Country
US
Launch date
2024-11-09
Launch site
AFWTR
Launch vehicle
Mass (kg)
RCS (m²)

Purposes: comms

External: N2YO · Heavens-Above · Gunter

§ Orbital elements

Epoch: 2026-05-24T19:43:59.972160Z

Period
91.74 min
Inclination
53.1601°
Eccentricity
0.0001030
Mean motion
15.69702395 rev/d
Perigee alt
359.1 km
Apogee alt
360.4 km
Semi-major
6,737.9 km
B*
1.1571e-5
RAAN
340.8368°
Arg perigee
118.0404°
Mean anomaly
242.0718°
Rev number
8,887

§ Raw data

STARLINK-11359 [DTC]1 61884U 24204L   26144.82222190  .00000813  00000+0  11571-4 0  99922 61884  53.1601 340.8368 0001030 118.0404 242.0718 15.69702395 88871

JSON: /api/v1/satellites/61884 · /tle

For live sub-satellite position, see the globe view (requires WebGL).

§ Visibility from observer

Set your observer location to see the next 7 days of passes ≥ 10°. The values pass through the URL so the page stays shareable.

No JS? Fill the form by hand. The geolocation button needs JavaScript.